Вернуться в каталог

FENGYUN 1C DEB

АктивенSSO
NORAD 32161·DEBRIS·🇨🇳 China

Запущен May 10, 1999 с Taiyuan Satellite Launch Center

Loading…

Ближайшие Пролёты (ближайшие 24 часа)

TLE

СвежийSource: Space-Track

Эпоха: Sep 14, 2026, 13:14 UTC

1 32161U 99025CTF 26257.55174447  .00000262  00000-0  18484-3 0  9995
2 32161  98.8409 358.7001 0134563 231.3480 127.5582 14.02104310672944

Отслеживайте FENGYUN 1C DEB в реальном времени с AllMySat

Download on the App Store